Location: Martin Dies, Jr. State Park
(30.8429°N, 94.1720°W)
Time: 17:51:07
(UTC-06:00)

ISS - Pass Details

Date: 17 November 2019
Orbit: 411 x 421 km, 51.6° (Epoch: 13 December)

Event Time Altitude Azimuth Distance (km) Brightness Sun altitude
Rises 18:19:11 0° 181° (S) 2,335 0.2 -13.3°
Reaches altitude 10° 18:22:26 10° 146° (SE) 1,482 -1.2 -13.9°
Enters shadow 18:23:09 11° 133° (SE) 1,411 -1.4 -14.1°
